This demonstration page uses our WeatherBlox Daily Observations layout. Learn more.

Left ArrowRight Arrow

Hourly Observations for January 9, 2015

Temp ( °F °C ) Dew Point ( °F °C ) Humidity (%) Winds ( mph kmh ) Pressure ( in mb ) Visibility ( mi km ) Precip ( " mm )
12:51 am 00:51 Cloudy with Light Rain 43 6.1 36 2.2 76 76 ESE 8 13 30.11 1020 10 16 N/A
1:51 am 01:51 Cloudy with Light Rain 42 5.6 37 2.8 82 82 SE 12 19 30.11 1020 10 16 N/A
2:51 am 02:51 Cloudy with Light Rain 43 6.1 38 3.3 82 82 SSE 13 20 30.12 1020 10 16 N/A
3:51 am 03:51 Mostly Cloudy 42 5.6 38 3.3 85 85 SE 10 17 30.12 1020 10 16 N/A
4:51 am 04:51 Mostly Cloudy 43 6.1 38 3.3 82 82 SE 10 17 30.12 1020 10 16 N/A
5:51 am 05:51 Cloudy 42 5.6 38 3.3 85 85 SE 9 15 30.14 1021 10 16 N/A
6:51 am 06:51 Mostly Cloudy 43 6.1 36 2.2 76 76 SE 9 15 30.14 1021 10 16 N/A
7:51 am 07:51 Mostly Cloudy 43 6.1 36 2.2 76 76 SE 10 17 30.17 1022 10 16 N/A
8:51 am 08:51 Cloudy 44 6.7 36 2.2 73 73 SSE 13 20 30.20 1023 10 16 N/A
9:51 am 09:51 Cloudy 46 7.8 35 1.7 66 66 SE 12 19 30.22 1024 10 16 N/A
10:51 am 10:51 Mostly Cloudy 51 10.6 34 1.1 52 52 ESE 14 22 30.21 1023 10 16 N/A
11:51 am 11:51 Cloudy 53 11.7 35 1.7 51 51 SE 10 17 30.18 1022 10 16 N/A
12:51 pm 12:51 Mostly Sunny 54 12.2 35 1.7 49 49 SE 12 19 30.14 1021 10 16 N/A
1:42 pm 13:42 Sunny 54 12.2 34 1.1 47 47 E 16 26 30.15 1021 10 16 N/A
1:51 pm 13:51 Sunny 54 12.2 35 1.7 49 49 E 18 30 30.13 1020 10 16 N/A
2:51 pm 14:51 Mostly Cloudy 56 13.3 35 1.7 46 46 E 15 24 30.11 1020 10 16 N/A
3:51 pm 15:51 Mostly Cloudy 55 12.8 36 2.2 49 49 E 13 20 30.12 1020 10 16 N/A
4:51 pm 16:51 Cloudy 56 13.3 33 0.6 42 42 SE 12 19 30.12 1020 10 16 N/A
5:51 pm 17:51 Cloudy 53 11.7 33 0.6 47 47 SE 12 19 30.15 1021 10 16 N/A
6:51 pm 18:51 Cloudy 50 10 31 -0.6 48 48 SE 14 22 30.18 1022 10 16 N/A
7:51 pm 19:51 Cloudy 49 9.4 32 undefined 52 52 SE 10 17 30.19 1023 10 16 N/A
8:51 pm 20:51 Cloudy 47 8.3 31 -0.6 54 54 ESE 6 9 30.21 1023 10 16 N/A
9:51 pm 21:51 Cloudy 45 7.2 31 -0.6 58 58 SE 7 11 30.21 1023 10 16 N/A
10:51 pm 22:51 Cloudy 44 6.7 31 -0.6 60 60 SE 8 13 30.19 1023 10 16 N/A
11:51 pm 23:51 Mostly Cloudy 42 5.6 30 -1.1 62 62 SSE 9 15 30.19 1022 10 16 N/A

Powered by AerisWeather